轨道通信卫星FM114星 (ORBCOMM FM114)

导读 | 豆包AI

ORBCOMM FM 114是ORB于2015年12月22日08:00发射的低轨通信卫星,隶属于ORBCOMM星座系统,该星座主要提供全球机器对机器(M2M)物联网通信服务。卫星进入预定轨道后,为海事、交通、应急等领域提供窄带通信连接,支持资产跟踪、环境监测和远程数据传输,是ORBCOMM全球卫星物联网网络的重要组成部分,助力偏远地区和移动设施的连通性保障。

基本信息
目录编号:
41179
目录名称:
ORBCOMM FM 114
国际标识:
2015-081A
轨道中心:
EARTH
卫星名称:
轨道通信卫星FM114星
卫星全名:
轨道通信卫星FM114星 (ORBCOMM FM114)
卫星状态:
在轨 (已飞行3734 天)
发射日期:
2015-12-22 UTC
国别 :
(ORB)
星等 :
--
轨道信息
数据来源 国际轨道数据 AOE轨道数据
星历时间 2026-03-13T18:27:12+0800
13小时前
查看轨道信息
2026-03-10T02:00:00+0800
4天前
查看轨道信息
半长轴 7075.394km 7075.397km
偏心率 0.0001432 0.0002244
轨道倾角 47.004° 47.005°
近地点辐角 141.978° 91.417°
升交点赤经 94.666° 112.089°
平近点角 218.121° 337.287°
近地点 696.243km 695.672km
远地点 698.271km 698.848km
周期 98.716分钟 98.716分钟
每日圈数 14.587365 14.587355
详细信息
固有亮度:
8
最大亮度:
6.7
平衡模式:
三轴稳定
覆盖范围:
全球
运营商:
轨道通信公司
运营商所在国:
美国
使用方式:
暂无
卫星简介
轨道通信FM(Orbcomm FM)是一系列低地球轨道通信卫星,由美国卫星通信公司 Orbcomm运营。 截至2015年12月,已有63颗此类卫星绕地球运行。该卫星仍在工作。
2D轨道图
3D轨道图
轨道高度分析图
轨道倾角分析图
轨道综合分析图
查看轨道综合分析图